| time (UTC) | temp C | wind direction | speed KPH | gust KPH | rain 1hr cm | rain 24hr cm | rain mn cm | humidity % | barometer mb |
| 20260507083503 | 10 | 337 | 1.6 | 4.8 | 0.00 | 0.03 | 0.00 | 91 | 1004.2 |
| 20260507083003 | 9 | 283 | 3.2 | 6.4 | 0.00 | 0.03 | 0.00 | 90 | 1004.1 |
| 20260507082503 | 9 | 303 | 3.2 | 6.4 | 0.00 | 0.03 | 0.00 | 90 | 1004.1 |
| 20260507082004 | 9 | 34 | 3.2 | 4.8 | 0.00 | 0.03 | 0.00 | 90 | 1004.0 |
| 20260507081503 | 9 | 341 | 3.2 | 4.8 | 0.00 | 0.03 | 0.00 | 90 | 1004.1 |
| 20260507080504 | 9 | 301 | 3.2 | 6.4 | 0.00 | 0.03 | 0.00 | 90 | 1003.9 |
| 20260507075503 | 9 | 260 | 3.2 | 8.0 | 0.00 | 0.03 | 0.00 | 90 | 1004.0 |
| 20260507075003 | 9 | 198 | 3.2 | 6.4 | 0.00 | 0.03 | 0.00 | 90 | 1003.8 |
| 20260507074503 | 9 | 211 | 1.6 | 6.4 | 0.00 | 0.03 | 0.00 | 90 | 1003.5 |
| 20260507074004 | 9 | 303 | 1.6 | 4.8 | 0.00 | 0.03 | 0.00 | 90 | 1003.6 |
| 20260507073504 | 9 | 357 | 3.2 | 4.8 | 0.00 | 0.03 | 0.00 | 91 | 1003.6 |
| 20260507073003 | 9 | 16 | 1.6 | 3.2 | 0.00 | 0.03 | 0.00 | 91 | 1003.5 |
| 20260506205004 | 11 | 312 | 3.2 | 12.9 | 0.00 | 0.10 | 0.10 | 85 | 999.2 |
| 20260506204503 | 12 | 340 | 3.2 | 6.4 | 0.00 | 0.10 | 0.10 | 85 | 999.3 |
| 20260506204004 | 12 | 312 | 3.2 | 11.3 | 0.00 | 0.10 | 0.10 | 85 | 999.3 |
| 20260506203505 | 12 | 304 | 3.2 | 11.3 | 0.00 | 0.10 | 0.10 | 85 | 999.1 |
| 20260506203004 | 12 | 324 | 8.0 | 11.3 | 0.00 | 0.10 | 0.10 | 85 | 999.0 |
| 20260506202504 | 12 | 18 | 3.2 | 9.7 | 0.00 | 0.10 | 0.10 | 85 | 998.9 |
| 20260506202004 | 12 | 1 | 6.4 | 11.3 | 0.00 | 0.10 | 0.10 | 82 | 998.9 |
| 20260506201504 | 12 | 18 | 3.2 | 11.3 | 0.00 | 0.13 | 0.10 | 81 | 999.0 |
| 20260506200503 | 13 | 67 | 4.8 | 14.5 | 0.00 | 0.13 | 0.10 | 81 | 999.1 |
| 20260506200004 | 13 | 18 | 4.8 | 14.5 | 0.00 | 0.15 | 0.10 | 81 | 999.1 |
| 20260506195504 | 13 | 13 | 6.4 | 14.5 | 0.00 | 0.15 | 0.10 | 80 | 998.8 |
| 20260506194504 | 14 | 313 | 3.2 | 6.4 | 0.00 | 0.15 | 0.10 | 76 | 998.4 |
| 20260506194003 | 14 | 188 | 1.6 | 3.2 | 0.00 | 0.18 | 0.10 | 75 | 998.5 |
| 20260506193503 | 14 | 187 | 1.6 | 3.2 | 0.00 | 0.20 | 0.10 | 74 | 998.3 |
| 20260506193004 | 14 | 178 | 1.6 | 6.4 | 0.00 | 0.20 | 0.10 | 74 | 998.3 |
| 20260506192504 | 14 | 162 | 1.6 | 6.4 | 0.00 | 0.20 | 0.10 | 73 | 997.9 |
| 20260506191504 | 14 | 210 | 1.6 | 4.8 | 0.00 | 0.23 | 0.10 | 73 | 997.8 |
| 20260506191004 | 15 | 230 | 3.2 | 6.4 | 0.00 | 0.28 | 0.10 | 73 | 997.9 |
| 20260506190503 | 15 | 250 | 1.6 | 6.4 | 0.00 | 0.28 | 0.10 | 72 | 997.9 |
| 20260506190005 | 15 | 228 | 3.2 | 6.4 | 0.00 | 0.28 | 0.10 | 72 | 998.0 |
| 20260506185504 | 15 | 198 | 4.8 | 6.4 | 0.00 | 0.30 | 0.10 | 72 | 997.7 |
| 20260506185003 | 15 | 174 | 1.6 | 4.8 | 0.00 | 0.30 | 0.10 | 72 | 998.0 |
| 20260506184504 | 15 | 249 | 3.2 | 6.4 | 0.00 | 0.33 | 0.10 | 72 | 997.9 |
| 20260506184004 | 15 | 211 | 1.6 | 6.4 | 0.00 | 0.33 | 0.10 | 71 | 997.9 |
| 20260506183504 | 15 | 187 | 3.2 | 6.4 | 0.00 | 0.33 | 0.10 | 71 | 997.7 |
| 20260506183004 | 15 | 251 | 3.2 | 8.0 | 0.00 | 0.36 | 0.10 | 71 | 997.5 |
| 20260506182503 | 15 | 251 | 1.6 | 8.0 | 0.00 | 0.36 | 0.10 | 70 | 997.5 |
| 20260506181504 | 15 | 169 | 3.2 | 4.8 | 0.00 | 0.38 | 0.10 | 70 | 997.5 |
| 20260506181004 | 15 | 138 | 3.2 | 4.8 | 0.00 | 0.43 | 0.10 | 70 | 997.5 |
| 20260506180504 | 16 | 153 | 3.2 | 6.4 | 0.00 | 0.43 | 0.10 | 69 | 997.6 |
| 20260506180005 | 16 | 197 | 3.2 | 6.4 | 0.00 | 0.48 | 0.10 | 69 | 997.7 |
| 20260506175504 | 16 | 205 | 1.6 | 6.4 | 0.00 | 0.48 | 0.10 | 69 | 997.2 |
| 20260506175004 | 16 | 226 | 3.2 | 9.7 | 0.00 | 0.51 | 0.10 | 68 | 997.3 |
| 20260506174503 | 16 | 245 | 3.2 | 9.7 | 0.00 | 0.51 | 0.10 | 68 | 997.2 |
| 20260506174004 | 16 | 241 | 3.2 | 8.0 | 0.00 | 0.53 | 0.10 | 67 | 997.3 |
| 20260506173503 | 16 | 239 | 4.8 | 8.0 | 0.00 | 0.56 | 0.10 | 67 | 997.1 |
| 20260506172504 | 16 | 194 | 3.2 | 8.0 | 0.00 | 3.10 | 0.41 | 66 | 997.1 |
| 20260506172003 | 16 | 155 | 3.2 | 6.4 | 0.00 | 3.38 | 0.41 | 66 | 996.9 |
| 20260506171504 | 17 | 214 | 3.2 | 12.9 | 0.00 | 3.51 | 0.41 | 65 | 996.9 |
| 20260506170504 | 17 | 266 | 3.2 | 9.7 | 0.00 | 3.78 | 0.41 | 63 | 996.8 |
| 20260506170004 | 17 | 251 | 4.8 | 11.3 | 0.00 | 3.78 | 0.41 | 59 | 996.7 |
| 20260506165504 | 17 | 243 | 3.2 | 12.9 | 0.00 | 3.91 | 0.41 | 57 | 996.6 |
| 20260506165003 | 18 | 214 | 3.2 | 12.9 | 0.00 | 3.91 | 0.41 | 56 | 996.6 |
| 20260506164004 | 18 | 234 | 6.4 | 12.9 | 0.00 | 4.04 | 0.41 | 54 | 996.6 |
| 20260506163504 | 19 | 219 | 3.2 | 12.9 | 0.00 | 4.19 | 0.41 | 53 | 996.4 |
| 20260506163004 | 19 | 187 | 8.0 | 12.9 | 0.00 | 4.19 | 0.41 | 52 | 996.4 |
| 20260506162504 | 20 | 221 | 3.2 | 11.3 | 0.00 | 4.19 | 0.41 | 51 | 996.6 |
| 20260506162003 | 19 | 222 | 4.8 | 11.3 | 0.00 | 4.19 | 0.41 | 52 | 996.4 |
| 20260506161504 | 20 | 231 | 3.2 | 11.3 | 0.00 | 4.19 | 0.41 | 51 | 996.4 |
| 20260506161003 | 20 | 245 | 8.0 | 11.3 | 0.00 | 4.19 | 0.41 | 50 | 996.4 |
| 20260506160005 | 21 | 204 | 4.8 | 9.7 | 0.00 | 4.19 | 0.41 | 50 | 996.6 |
| 20260506155504 | 21 | 242 | 3.2 | 6.4 | 0.00 | 4.19 | 0.41 | 49 | 996.5 |
| 20260506155004 | 21 | 259 | 4.8 | 8.0 | 0.00 | 4.19 | 0.41 | 50 | 996.4 |
| 20260506153504 | 21 | 185 | 6.4 | 12.9 | 0.00 | 4.19 | 0.41 | 49 | 996.4 |
| 20260506153004 | 21 | 164 | 3.2 | 12.9 | 0.00 | 4.19 | 0.41 | 50 | 996.5 |
| 20260506152504 | 20 | 171 | 6.4 | 12.9 | 0.00 | 4.19 | 0.41 | 49 | 996.5 |
| 20260506152004 | 20 | 197 | 4.8 | 9.7 | 0.00 | 4.19 | 0.41 | 47 | 996.4 |
| 20260506151504 | 20 | 204 | 3.2 | 8.0 | 0.00 | 4.19 | 0.41 | 50 | 996.5 |
| 20260506151004 | 20 | 204 | 3.2 | 8.0 | 0.00 | 4.19 | 0.41 | 50 | 996.4 |
| 20260506150504 | 19 | 177 | 4.8 | 12.9 | 0.00 | 4.19 | 0.41 | 49 | 996.5 |
| 20260506150004 | 20 | 198 | 3.2 | 12.9 | 0.00 | 4.19 | 0.41 | 47 | 996.4 |
| 20260506145504 | 20 | 222 | 3.2 | 12.9 | 0.00 | 4.19 | 0.41 | 44 | 996.6 |
| 20260506145004 | 21 | 158 | 4.8 | 9.7 | 0.00 | 4.19 | 0.41 | 44 | 996.6 |
| 20260506144504 | 21 | 154 | 3.2 | 12.9 | 0.00 | 4.19 | 0.41 | 48 | 996.4 |
| 20260506144003 | 21 | 174 | 3.2 | 12.9 | 0.00 | 4.19 | 0.41 | 50 | 996.8 |
| 20260506143504 | 20 | 181 | 9.7 | 12.9 | 0.00 | 4.19 | 0.41 | 50 | 996.7 |
| 20260506143003 | 20 | 217 | 4.8 | 12.9 | 0.00 | 4.19 | 0.41 | 51 | 996.7 |
| 20260506142503 | 19 | 228 | 3.2 | 12.9 | 0.00 | 4.19 | 0.41 | 52 | 996.7 |
| 20260506142003 | 19 | 229 | 3.2 | 9.7 | 0.00 | 4.19 | 0.41 | 52 | 996.8 |
| 20260506141504 | 20 | 206 | 8.0 | 12.9 | 0.00 | 4.19 | 0.41 | 53 | 996.8 |
| 20260506141004 | 19 | 178 | 3.2 | 12.9 | 0.00 | 4.19 | 0.41 | 54 | 996.6 |
| 20260506140504 | 19 | 179 | 4.8 | 9.7 | 0.00 | 4.19 | 0.41 | 52 | 996.6 |
| 20260506135504 | 20 | 194 | 4.8 | 16.1 | 0.00 | 4.19 | 0.41 | 51 | 996.5 |
| 20260506135004 | 20 | 178 | 3.2 | 12.9 | 0.00 | 4.19 | 0.41 | 51 | 996.5 |
| 20260506134504 | 20 | 204 | 3.2 | 12.9 | 0.00 | 4.19 | 0.41 | 50 | 996.4 |
| 20260506134004 | 20 | 207 | 6.4 | 11.3 | 0.00 | 4.19 | 0.41 | 50 | 996.6 |
| 20260506133503 | 20 | 183 | 6.4 | 17.7 | 0.00 | 4.19 | 0.41 | 50 | 996.7 |
| 20260506133004 | 20 | 179 | 3.2 | 17.7 | 0.00 | 4.19 | 0.41 | 51 | 996.7 |
| 20260506132005 | 19 | 193 | 4.8 | 12.9 | 0.00 | 4.19 | 0.41 | 54 | 996.7 |
| 20260506131504 | 19 | 141 | 6.4 | 11.3 | 0.00 | 4.19 | 0.41 | 54 | 996.8 |
| 20260506131004 | 19 | 217 | 3.2 | 8.0 | 0.00 | 4.19 | 0.41 | 53 | 996.7 |
| 20260506130004 | 20 | 228 | 6.4 | 12.9 | 0.00 | 4.19 | 0.41 | 52 | 997.0 |
| 20260506125504 | 20 | 223 | 3.2 | 11.3 | 0.00 | 4.19 | 0.41 | 51 | 996.7 |
| 20260506125003 | 20 | 193 | 3.2 | 11.3 | 0.00 | 4.19 | 0.41 | 52 | 996.6 |
| 20260506124004 | 20 | 184 | 3.2 | 8.0 | 0.00 | 4.19 | 0.41 | 51 | 996.9 |
| 20260506123003 | 20 | 234 | 4.8 | 12.9 | 0.00 | 4.19 | 0.41 | 51 | 996.7 |
| 20260506122504 | 19 | 222 | 3.2 | 12.9 | 0.00 | 4.19 | 0.41 | 52 | 997.1 |
| 20260506121504 | 19 | 186 | 4.8 | 11.3 | 0.00 | 4.19 | 0.41 | 52 | 996.7 |
| 20260506121003 | 19 | 199 | 4.8 | 11.3 | 0.00 | 4.19 | 0.41 | 52 | 996.9 |
| 20260506120504 | 20 | 223 | 3.2 | 8.0 | 0.00 | 4.19 | 0.41 | 53 | 997.2 |
| 20260506120004 | 20 | 213 | 3.2 | 12.9 | 0.00 | 4.19 | 0.41 | 53 | 996.8 |
| 20260506115504 | 19 | 220 | 6.4 | 12.9 | 0.00 | 4.19 | 0.41 | 53 | 996.9 |
| 20260506115004 | 18 | 207 | 1.6 | 11.3 | 0.00 | 4.19 | 0.41 | 55 | 997.0 |
| 20260506114503 | 18 | 169 | 6.4 | 11.3 | 0.00 | 4.19 | 0.41 | 54 | 997.1 |
| 20260506114003 | 18 | 196 | 6.4 | 12.9 | 0.00 | 4.19 | 0.41 | 52 | 997.0 |
| 20260506113504 | 18 | 192 | 8.0 | 12.9 | 0.00 | 4.19 | 0.41 | 52 | 997.2 |
| 20260506113004 | 19 | 173 | 6.4 | 11.3 | 0.00 | 4.19 | 0.41 | 54 | 997.3 |
| 20260506112504 | 18 | 265 | 3.2 | 11.3 | 0.00 | 4.19 | 0.41 | 53 | 997.0 |
| 20260506112004 | 18 | 239 | 3.2 | 12.9 | 0.00 | 4.19 | 0.41 | 55 | 997.0 |
| 20260506111504 | 18 | 193 | 6.4 | 12.9 | 0.00 | 4.19 | 0.41 | 54 | 997.1 |
| 20260506111004 | 19 | 183 | 4.8 | 11.3 | 0.00 | 4.19 | 0.41 | 56 | 997.2 |
| 20260506110504 | 18 | 168 | 6.4 | 11.3 | 0.13 | 4.19 | 0.41 | 55 | 997.3 |
| 20260506110004 | 18 | 198 | 6.4 | 16.1 | 0.13 | 4.19 | 0.41 | 54 | 997.3 |
| 20260506105504 | 18 | 203 | 3.2 | 16.1 | 0.13 | 4.19 | 0.41 | 55 | 997.2 |
| 20260506105003 | 19 | 179 | 9.7 | 16.1 | 0.13 | 4.19 | 0.41 | 54 | 997.3 |
| 20260506104004 | 18 | 185 | 6.4 | 14.5 | 0.13 | 4.19 | 0.41 | 56 | 997.1 |
| 20260506103504 | 18 | 186 | 3.2 | 14.5 | 0.13 | 4.19 | 0.41 | 58 | 997.3 |
| 20260506103004 | 18 | 197 | 6.4 | 12.9 | 0.13 | 4.19 | 0.41 | 60 | 997.3 |
| 20260506102504 | 18 | 195 | 4.8 | 12.9 | 0.13 | 4.19 | 0.41 | 60 | 997.3 |
| 20260506102004 | 18 | 213 | 3.2 | 9.7 | 0.13 | 4.19 | 0.41 | 63 | 997.4 |
| 20260506101503 | 17 | 209 | 4.8 | 11.3 | 0.13 | 4.19 | 0.41 | 70 | 997.3 |
| 20260506101004 | 16 | 189 | 6.4 | 11.3 | 0.13 | 4.19 | 0.41 | 67 | 997.3 |
| 20260506100503 | 17 | 181 | 6.4 | 12.9 | 0.00 | 4.04 | 0.28 | 66 | 997.4 |